Theta_e
299 288 285 283 285 287 287 288 287 287 287 287 287 285 283 283 284 286 286 288 289 285 284 284 282 280 280 281 282 283 283 281 280 279 279 279 280 281 281 281 282 282 282 284 284 284 284 284 284 285 285 285 285 285 285 285 285 285 284 284 283 284 284 283 283 282 282 281 281 281 280 279 280 280 281 280 281 281 281 281 281 281 281 282 281 281
297 287 284 287 287 287 287 289 289 288 289 287 285 283 282 284 281 285 285 288 289 284 283 285 282 278 279 279 281 282 281 279 279 278 278 279 281 281 281 281 281 282 283 283 282 283 283 284 284 284 284 284 283 284 284 284 284 284 284 283 283 284 284 284 283 283 282 282 282 281 281 281 280 281 280 280 281 281 281 281 281 281 281 281 281 281
288 284 287 288 290 289 289 289 288 287 287 287 283 282 281 282 283 286 287 288 287 286 283 284 280 276 277 278 279 279 279 279 280 279 279 279 280 281 281 281 281 281 280 280 280 281 281 282 282 283 283 283 282 282 282 282 282 282 282 283 283 283 283 283 284 283 282 283 283 282 282 281 281 282 282 281 282 281 281 281 281 281 281 281 281 281
286 287 288 290 291 290 289 288 287 287 289 285 283 281 279 282 280 277 284 286 286 284 282 283 279 276 277 278 278 278 279 278 280 279 280 281 280 280 280 280 280 279 280 279 279 279 280 281 281 281 281 281 281 281 281 281 281 282 282 282 282 282 283 283 283 284 283 283 283 283 283 283 282 281 282 282 282 282 281 281 281 282 281 281 280 281
285 288 290 291 291 289 287 288 285 284 284 285 284 281 280 280 281 281 281 285 286 286 286 282 279 275 277 275 276 278 279 279 279 281 281 282 282 281 280 279 279 278 278 277 278 278 279 280 279 279 280 280 280 280 280 281 281 281 281 281 281 281 282 282 283 283 283 283 282 282 282 283 282 282 281 281 281 281 282 282 281 281 282 281 280 280
287 289 291 291 290 289 287 285 284 283 282 284 284 283 282 283 282 283 284 282 281 280 284 281 274 274 276 275 275 277 278 278 280 280 279 280 280 280 279 279 279 279 279 277 277 278 279 279 279 279 280 280 279 279 280 280 280 279 279 279 280 280 280 281 281 282 282 281 281 280 279 278 278 278 278 278 278 279 280 280 281 281 281 281 280 280
289 290 290 289 288 288 287 284 285 285 281 282 281 285 284 283 283 283 282 281 276 274 280 283 273 271 276 273 275 276 277 277 279 278 279 279 278 277 277 277 277 277 277 277 278 279 279 279 278 278 278 279 279 279 279 279 279 279 278 277 278 277 278 279 279 280 280 279 280 279 279 279 278 277 278 279 280 280 280 281 280 280 281 281 280 279
291 290 289 289 288 286 284 283 285 284 282 280 285 285 284 283 282 282 282 281 279 283 284 283 279 273 272 275 276 277 277 276 276 278 278 278 277 276 276 276 276 277 277 276 278 279 278 277 278 277 278 278 278 278 278 277 277 277 276 276 277 278 278 279 278 278 279 278 279 279 279 279 279 278 278 279 279 280 280 279 279 280 279 280 280 279
289 288 287 286 286 284 282 284 286 286 282 282 285 286 283 284 283 283 281 280 281 279 276 279 280 273 272 275 277 276 274 275 275 276 277 277 276 276 276 276 276 277 277 277 277 278 277 276 277 278 277 278 277 277 276 275 274 274 274 275 276 276 277 277 277 277 277 278 279 279 278 276 277 278 278 279 279 278 278 278 278 278 278 279 279 279
289 288 288 288 285 282 285 286 286 285 282 286 287 287 286 286 285 284 281 280 279 277 273 276 278 271 270 276 276 277 275 273 274 275 276 276 276 276 275 275 276 277 276 277 277 278 277 277 277 278 277 276 276 276 276 275 275 273 273 275 275 274 275 275 277 278 278 278 278 277 276 275 275 276 276 277 276 276 277 276 276 277 277 277 277 278
288 292 292 289 284 286 286 287 287 285 286 289 287 284 284 283 282 283 281 280 278 273 274 277 278 274 268 272 272 272 271 273 273 275 276 276 276 276 275 275 275 276 276 276 276 277 276 277 277 276 275 275 275 275 275 274 273 273 272 273 273 272 273 274 274 273 273 275 276 275 275 275 274 274 274 274 274 274 274 274 275 275 275 276 276 277
289 288 289 289 291 288 288 287 289 289 288 287 283 281 282 280 282 280 280 279 272 271 276 278 276 275 267 272 275 275 275 275 274 273 274 274 274 274 274 274 275 275 275 275 275 275 276 275 275 275 274 273 274 274 273 273 272 272 271 272 271 271 272 273 273 272 273 273 273 274 274 274 274 274 273 273 273 273 273 273 273 274 274 274 275 275
285 285 286 289 289 288 286 286 286 288 287 284 282 280 275 274 275 272 275 270 270 269 276 278 276 272 272 274 275 274 276 275 276 275 274 274 274 274 274 274 275 275 274 274 274 275 275 273 272 272 273 272 272 272 272 271 271 271 271 271 270 270 271 271 272 272 272 273 273 273 273 273 274 273 273 273 272 273 273 273 273 273 272 273 273 273
285 286 288 287 287 289 286 281 280 281 283 282 278 276 273 269 268 267 271 272 272 275 278 276 277 273 275 275 275 275 275 276 276 276 276 274 273 273 273 274 274 274 274 274 275 274 274 273 273 271 272 272 271 271 271 270 270 270 270 270 270 270 271 271 271 272 272 272 272 273 272 272 272 272 272 272 272 272 272 272 272 272 272 272 272 272
281 281 284 286 283 288 285 283 281 281 281 281 283 279 275 274 268 265 269 265 267 270 273 278 272 269 269 272 276 275 276 276 277 276 276 275 275 274 274 274 274 273 273 274 273 273 273 273 272 271 271 270 270 270 270 270 270 269 269 269 269 269 270 270 270 270 270 270 271 271 271 271 271 271 272 272 272 272 272 272 272 272 272 272 272 272
283 282 284 287 286 286 283 285 285 284 283 283 283 283 277 273 277 269 271 270 269 268 269 273 271 275 273 277 277 277 278 276 277 276 275 274 274 273 272 272 272 272 273 273 273 272 272 272 271 271 270 270 270 271 269 269 269 269 268 269 268 268 269 269 270 269 270 270 270 270 270 271 271 272 272 272 272 272 272 271 271 271 271 272 272 272
283 282 285 286 286 284 284 286 285 286 274 280 281 274 276 281 278 273 275 276 275 272 270 276 273 275 278 275 276 277 276 275 275 274 273 273 273 272 272 272 272 272 273 273 273 272 271 271 271 271 270 270 271 269 268 268 268 268 268 268 268 268 269 269 269 269 269 269 270 270 270 271 270 270 270 270 270 270 271 271 271 271 271 271 271 271
279 281 288 285 282 284 286 286 286 285 285 282 276 277 282 282 279 275 268 270 269 266 268 272 268 269 270 267 276 275 273 273 274 273 273 273 272 271 271 271 271 271 273 274 273 272 272 272 271 270 271 270 269 269 268 269 271 270 268 267 267 268 268 268 269 269 269 269 269 269 270 270 270 270 270 270 270 270 270 270 270 271 270 270 270 271
282 280 284 284 284 284 286 285 282 284 287 280 278 283 276 270 270 275 272 264 262 263 265 269 270 270 271 270 273 270 270 271 272 273 272 271 271 270 271 271 271 272 272 272 272 271 272 271 270 270 269 270 271 269 270 269 269 269 268 268 268 267 268 268 268 269 269 269 269 269 269 269 270 270 270 270 270 270 269 269 270 270 270 270 270 270
284 278 282 284 284 284 284 283 279 280 281 283 283 280 281 278 274 270 271 271 271 265 263 265 268 267 274 272 272 270 271 272 272 271 271 271 270 270 271 270 270 271 274 273 271 271 271 271 269 269 270 270 267 268 269 269 270 272 271 268 267 267 267 268 268 268 268 269 269 269 269 269 270 270 269 269 269 269 269 269 269 269 269 269 270 270
282 284 277 285 286 285 280 282 280 280 278 279 279 276 277 277 278 275 275 270 268 264 265 264 263 268 273 273 272 271 272 273 272 271 271 271 271 271 271 270 270 270 272 273 271 271 271 269 269 270 270 269 268 268 268 266 266 266 267 266 267 266 266 267 268 269 268 269 269 269 269 269 269 269 269 269 269 269 269 269 270 269 269 270 269 270
281 282 278 281 283 283 280 282 282 281 281 279 278 275 276 273 271 268 267 273 269 267 264 263 261 268 275 276 275 275 275 274 274 272 271 271 270 271 271 271 271 270 273 272 271 271 272 269 269 271 269 267 267 267 270 271 270 268 266 266 266 266 266 266 266 267 268 268 268 268 268 268 269 269 269 269 269 268 269 269 269 269 269 269 269 269
282 282 281 278 281 281 280 282 283 283 281 280 279 276 277 276 275 272 265 269 271 270 270 268 265 267 278 276 277 276 275 274 274 273 271 271 270 271 271 271 271 271 270 270 271 273 270 270 269 268 268 266 266 266 266 266 266 265 265 266 266 266 266 267 267 267 267 267 267 268 268 268 268 269 268 268 268 268 268 268 269 269 268 268 269 269
283 279 279 281 282 279 280 281 281 281 281 278 278 279 277 274 273 273 271 272 268 269 267 267 264 269 277 278 278 277 276 275 274 273 271 271 271 271 271 271 270 270 270 274 273 270 269 269 269 269 266 265 265 265 267 267 265 265 265 265 266 265 266 266 267 267 267 267 267 268 268 268 268 268 268 268 268 268 268 268 268 269 268 268 269 268
280 283 280 278 280 278 276 276 276 278 277 278 278 276 277 276 274 273 271 271 267 269 270 266 261 267 276 279 278 277 276 274 273 273 272 270 270 270 270 270 270 270 270 272 271 270 268 269 268 266 265 265 264 265 267 266 265 265 265 265 265 266 266 266 266 267 267 267 266 267 267 268 268 267 267 267 267 267 268 268 268 268 268 268 268 268
281 281 280 276 274 272 273 274 276 277 279 281 277 275 275 273 272 272 270 271 267 271 270 266 266 273 277 278 276 276 274 273 273 273 272 271 270 270 270 270 270 270 269 271 271 268 267 269 267 265 265 265 265 264 264 264 264 265 265 265 265 265 265 266 266 266 265 266 266 266 267 267 267 267 267 267 267 267 267 267 267 267 268 268 267 268
281 281 281 280 278 276 279 280 284 283 280 277 279 276 273 273 274 273 273 270 269 269 267 269 269 270 272 274 274 274 273 271 271 271 270 270 270 271 271 270 270 269 269 269 270 269 268 266 268 266 265 265 264 264 264 264 265 265 265 265 265 265 265 265 265 265 265 266 266 266 266 267 267 267 267 267 267 267 267 267 267 267 267 268 267 267
281 280 281 281 280 280 281 280 282 281 278 279 278 277 275 273 271 270 270 269 274 269 266 272 273 269 270 273 273 273 272 272 271 271 270 270 270 270 270 270 270 269 269 270 268 268 266 266 266 265 265 268 265 264 264 264 264 265 265 264 265 265 265 265 265 265 265 265 266 266 266 266 267 266 266 267 267 267 267 267 267 267 267 267 267 267
280 278 278 275 278 279 280 280 281 280 280 279 278 278 276 274 272 269 270 273 273 267 266 271 272 269 271 273 274 273 272 271 271 271 271 271 270 270 270 269 268 268 268 268 269 267 266 266 264 266 266 265 268 265 263 263 264 264 264 265 265 265 265 265 265 264 264 265 265 265 266 266 266 266 266 266 266 266 266 266 266 267 267 267 267 267
279 280 278 277 276 278 279 280 281 279 279 279 278 278 278 277 274 273 272 274 273 271 272 272 271 271 273 274 274 273 274 273 272 272 271 270 269 269 269 268 268 268 267 266 267 266 266 266 265 264 265 268 265 262 262 262 263 263 263 264 264 264 264 264 264 264 264 264 264 265 265 265 266 266 266 265 265 265 266 265 266 266 266 266 267 267
279 279 277 278 275 277 280 281 281 280 278 276 277 278 277 277 276 275 274 274 274 273 273 273 271 269 274 276 274 275 274 273 272 270 269 270 269 269 268 268 268 267 267 266 264 265 265 265 265 265 267 264 262 262 262 262 262 263 263 263 263 263 264 264 263 264 264 264 264 265 265 265 265 265 265 265 265 265 265 265 265 265 266 266 266 267
278 279 279 277 275 277 281 279 280 280 278 275 274 275 276 275 272 274 272 275 273 271 272 271 269 270 275 276 275 274 274 271 270 269 269 269 269 269 268 267 267 266 266 265 264 265 265 264 264 263 263 262 262 262 262 262 262 262 262 263 263 263 263 263 263 263 263 264 264 264 264 264 264 264 264 264 264 264 264 265 265 265 265 266 266 267
280 279 278 278 274 276 282 281 280 277 274 272 273 275 277 276 276 276 277 276 275 275 271 269 270 275 275 275 273 273 272 271 270 269 268 268 269 269 268 267 267 266 265 265 264 264 266 264 265 264 263 262 261 262 263 263 262 262 262 262 263 263 263 263 264 263 263 263 263 264 264 264 263 263 263 263 263 264 264 264 264 264 265 265 266 267
276 278 278 278 273 275 279 279 279 275 273 277 279 282 280 277 276 274 274 276 277 277 274 275 275 276 275 274 272 272 271 270 269 270 270 269 268 268 268 267 267 266 265 265 264 263 265 266 264 263 263 262 263 263 263 263 262 262 263 263 263 262 262 262 262 262 262 263 263 263 263 263 262 262 262 263 263 263 263 263 263 264 265 266 267 267
277 277 278 277 273 275 277 277 276 272 278 277 279 280 280 279 278 276 276 277 277 277 277 276 276 275 275 274 274 273 272 272 271 270 270 270 269 268 267 267 266 266 265 265 264 263 263 264 263 262 262 262 263 263 263 262 262 263 262 262 262 262 262 262 262 262 262 262 262 262 262 262 262 262 262 262 262 263 263 263 264 264 265 266 266 267
279 278 279 275 276 277 276 277 269 276 279 277 278 278 278 278 277 275 274 276 277 277 277 275 275 275 275 274 274 273 272 271 270 270 270 271 270 268 267 267 266 266 265 265 264 263 265 264 262 262 262 263 263 262 262 261 262 262 261 262 261 261 261 261 261 261 261 261 261 261 262 261 261 261 261 262 262 262 262 263 264 264 265 266 267 268
279 278 277 275 280 273 275 274 275 281 280 276 274 275 276 275 275 274 269 274 278 278 277 275 275 275 275 274 273 272 271 269 267 270 270 270 269 269 268 267 267 266 266 265 264 263 264 264 263 263 263 263 262 261 261 262 261 261 260 260 261 260 261 261 260 260 261 260 261 261 261 261 261 261 261 262 262 262 262 263 263 264 266 266 267 268
282 277 279 275 276 276 273 272 274 276 275 278 276 279 280 279 278 277 273 271 278 278 277 276 274 274 274 273 272 270 269 266 267 269 268 270 270 269 269 268 268 267 266 265 265 263 264 265 264 264 263 262 261 262 262 262 261 260 259 259 260 260 260 260 259 260 260 260 260 260 261 261 261 261 261 261 261 262 262 263 264 264 266 266 267 267
278 279 277 276 275 276 274 272 272 271 276 280 276 277 278 278 277 276 270 269 277 277 277 276 274 274 273 272 270 269 266 264 266 269 270 269 269 269 268 268 268 267 266 265 263 263 263 265 265 264 263 261 261 261 261 261 260 259 258 259 259 259 259 259 259 260 259 260 260 260 261 261 261 261 261 261 261 262 262 263 264 265 266 267 268 268
276 276 276 274 273 274 274 272 272 278 279 278 277 277 278 277 275 273 270 274 273 276 276 275 274 274 273 272 270 268 266 264 266 269 270 269 269 269 268 267 266 266 265 265 265 265 264 265 265 263 261 261 261 262 261 260 259 259 258 258 259 258 258 259 259 260 260 260 260 260 261 261 261 261 261 261 262 262 263 264 264 265 266 267 268 269
276 275 276 274 277 276 274 274 276 278 284 279 278 277 277 277 274 271 272 276 276 277 277 276 275 275 273 271 270 267 270 270 270 271 270 269 268 268 268 268 267 266 265 264 264 265 263 265 264 261 260 261 261 261 260 260 258 258 258 258 258 257 258 259 260 260 260 260 260 260 261 261 261 261 261 262 262 263 263 264 265 266 266 267 269 270
278 276 275 274 273 275 277 274 275 278 282 280 279 277 276 274 272 275 279 279 279 279 278 277 275 275 273 271 270 270 271 271 271 270 269 269 268 268 268 267 266 266 265 265 265 264 265 264 261 261 260 261 261 260 260 259 258 258 257 257 257 258 259 259 260 259 260 260 260 260 260 260 261 261 262 262 262 262 263 264 265 266 267 268 269 270
281 278 279 279 281 278 276 273 273 274 279 280 277 275 275 274 279 281 281 281 281 279 278 277 276 275 273 271 272 271 270 270 269 269 268 268 268 267 267 266 265 264 263 263 263 263 263 262 261 259 259 260 260 260 260 259 257 257 257 256 257 259 259 259 259 259 259 259 259 259 260 260 261 261 262 262 263 263 263 264 265 266 267 268 269 269
283 278 281 282 281 277 277 274 278 284 283 280 280 280 280 279 284 283 281 279 281 279 278 277 276 275 273 272 270 270 270 269 269 269 268 268 268 267 267 266 265 264 264 264 263 262 262 262 261 260 259 260 260 260 260 258 257 257 256 257 258 258 259 259 259 259 258 258 258 259 259 260 261 262 262 262 263 263 263 264 265 266 267 268 268 269
282 282 283 281 283 280 280 284 288 287 283 282 282 283 285 286 285 282 281 280 279 280 279 277 276 275 273 271 270 269 268 268 268 268 267 267 267 266 265 265 264 263 263 262 261 262 262 262 259 259 259 259 259 260 259 258 257 256 256 257 258 258 258 258 258 257 257 257 258 259 259 260 261 262 262 263 263 263 263 264 265 265 267 268 268 270
285 284 282 281 281 284 285 285 287 286 286 285 284 284 284 284 283 281 280 279 280 280 279 276 276 274 273 271 269 269 268 268 268 267 267 267 266 266 266 265 264 264 263 262 261 261 260 260 259 258 257 258 259 259 259 258 258 256 256 258 258 258 258 257 257 256 257 257 258 258 260 260 261 262 262 263 263 264 264 264 265 265 266 267 268 269
284 282 281 279 282 279 279 287 285 285 286 286 287 286 284 283 282 281 280 280 280 280 278 277 275 274 272 271 269 268 268 268 268 267 267 266 266 265 265 264 263 263 261 261 260 260 259 259 257 257 257 257 258 258 258 258 258 257 258 257 258 258 257 257 256 256 257 257 258 259 260 260 261 261 262 263 263 264 264 265 265 265 266 267 267 268
282 282 280 280 280 279 281 286 287 287 287 287 286 284 282 281 281 281 280 280 280 279 277 276 274 272 271 270 269 268 268 268 267 267 266 266 265 264 264 263 262 262 261 261 260 260 259 258 257 256 256 256 257 257 257 257 257 257 257 257 258 257 257 256 256 256 256 257 258 259 260 260 261 261 261 262 263 263 264 264 265 265 265 266 267 268
282 281 280 282 280 282 284 285 285 285 285 285 286 286 285 284 282 280 279 279 278 276 275 274 273 272 271 270 270 269 268 268 267 267 266 265 265 264 263 262 262 261 260 260 260 259 258 258 257 256 256 256 257 257 257 257 257 257 257 257 257 257 256 255 256 256 256 257 259 259 260 261 261 261 261 262 263 263 264 264 264 265 267 269 269 270
281 279 283 282 278 279 281 286 287 283 284 288 287 286 285 284 283 281 279 277 276 275 274 273 272 271 271 270 269 269 267 267 267 267 265 265 264 263 263 262 261 261 260 260 260 259 258 258 257 256 256 256 256 257 256 256 257 257 257 257 257 256 255 255 255 255 256 258 258 259 260 260 260 261 261 262 262 263 263 266 269 268 267 268 271 273
281 284 284 281 282 284 291 291 289 288 287 287 287 286 285 284 282 279 277 276 276 276 275 273 272 271 269 269 269 268 267 267 267 267 265 264 263 263 262 261 260 260 260 260 259 258 258 257 257 256 255 255 256 256 256 256 256 256 256 257 257 256 255 255 255 255 256 257 258 259 259 260 260 261 261 262 262 262 263 263 265 269 270 271 271 272
Wind_Speed
4 10 13 11 7 8 8 8 8 6 6 8 6 8 11 11 12 14 14 10 11 11 9 9 11 11 11 11 10 8 8 7 6 5 4 4 6 6 9 13 13 12 11 10 10 11 14 16 17 17 16 15 15 15 16 18 17 17 16 15 16 14 13 13 13 12 11 12 11 9 8 9 8 7 6 6 6 5 5 5 5 6 5 5 6 7
4 12 8 8 6 5 3 6 8 8 5 6 6 8 9 8 10 19 14 13 11 10 11 9 9 12 10 10 9 8 8 6 5 5 4 6 5 9 12 14 12 11 11 14 15 15 15 15 18 17 16 16 17 15 16 16 17 15 16 16 15 14 15 14 14 13 13 12 12 12 12 11 11 9 8 8 7 6 5 6 6 5 5 5 6 7
9 10 5 6 6 3 2 6 12 11 6 4 4 8 8 11 15 7 7 12 12 9 8 9 8 8 9 10 9 9 9 8 7 5 5 5 9 11 13 14 16 17 16 17 18 19 19 19 18 15 14 14 15 16 16 17 17 17 16 15 16 15 15 14 14 13 14 13 14 14 14 14 12 12 11 10 8 7 7 7 6 6 5 5 5 7
6 7 7 4 5 7 3 5 15 13 4 3 6 9 10 12 13 13 12 15 15 8 5 8 5 7 10 9 9 7 6 5 3 2 3 6 9 11 14 15 16 17 17 20 21 22 22 19 15 15 14 16 16 15 15 15 16 13 14 16 17 17 16 14 14 14 15 15 16 16 15 15 14 12 12 12 10 9 9 9 8 7 6 5 6 6
8 4 4 4 4 8 10 7 14 10 7 6 7 9 10 14 13 11 14 15 15 8 5 9 1 7 6 5 6 5 6 3 2 3 5 8 10 12 14 15 16 19 20 21 21 20 18 15 15 17 17 16 15 15 15 15 14 12 17 17 18 17 17 16 16 17 16 15 14 14 15 15 15 13 12 12 11 11 11 11 9 11 8 7 7 6
8 4 2 5 8 10 9 7 11 10 8 2 5 13 14 16 15 14 14 14 8 1 5 10 9 5 4 8 5 4 2 2 1 6 6 9 11 15 16 17 19 19 18 20 20 19 15 15 17 18 18 17 15 15 14 14 15 17 17 18 18 16 16 16 18 18 16 15 15 14 13 14 13 14 13 12 13 12 12 12 12 11 10 11 9 8
5 3 3 8 7 11 10 6 9 9 6 5 11 15 15 14 13 12 13 9 7 8 5 3 12 12 7 4 4 1 1 5 4 7 9 10 12 15 17 19 19 20 19 19 18 15 15 18 19 19 18 16 15 14 14 15 16 18 18 18 18 16 15 14 15 17 14 15 15 16 16 15 15 15 13 12 13 13 12 12 12 11 11 12 11 12
5 7 7 7 9 10 9 7 8 9 6 5 14 16 15 13 12 12 10 7 7 7 5 5 11 12 13 4 3 5 2 1 5 8 11 11 14 16 18 19 20 19 18 18 17 16 17 18 19 19 17 15 15 15 16 16 17 19 20 20 20 16 15 15 15 16 15 14 15 16 16 15 14 14 14 14 13 12 11 12 12 12 12 13 14 13
5 6 7 7 8 9 10 8 7 7 6 7 14 16 16 15 14 10 8 7 9 5 5 10 15 12 9 5 4 3 4 7 8 12 14 14 15 19 21 20 20 18 17 18 16 18 18 19 19 18 16 16 17 17 17 17 17 18 19 19 17 17 16 16 19 18 17 14 13 13 11 12 12 12 11 11 10 9 9 11 12 12 12 14 14 15
2 5 4 3 7 9 9 9 4 6 9 8 17 15 13 11 11 8 5 5 8 6 8 12 13 11 13 2 2 5 7 10 10 12 12 14 17 19 21 22 20 17 16 17 16 18 18 18 17 16 15 17 17 17 17 18 17 18 18 18 17 18 16 16 19 19 16 14 12 11 11 13 11 10 10 10 10 10 10 11 12 12 12 12 13 13
3 4 3 1 7 7 11 8 3 5 8 13 15 15 14 4 5 3 5 6 4 6 8 15 13 12 12 4 3 4 3 6 9 10 12 16 18 19 22 21 18 16 16 16 18 18 16 16 17 17 18 19 19 16 16 16 17 18 18 18 18 18 16 15 15 18 18 15 14 12 12 12 12 12 10 10 10 10 11 11 12 12 11 11 12 13
6 3 3 4 3 7 9 10 9 7 8 14 11 13 10 6 6 6 2 3 7 7 8 16 10 15 11 10 7 4 3 4 6 10 16 18 19 21 19 18 17 17 17 17 16 17 16 16 17 17 18 20 20 16 16 16 18 17 17 16 18 17 17 15 14 15 14 14 13 13 13 12 11 12 10 11 12 12 12 12 12 12 12 13 13 13
4 3 2 5 3 5 11 8 6 4 7 12 12 13 13 8 7 5 8 9 7 8 13 17 12 11 8 4 4 3 4 3 5 9 14 14 18 22 19 20 17 16 16 16 17 16 14 16 18 20 20 18 17 16 17 19 18 17 16 16 17 17 16 15 15 15 14 14 13 12 12 12 11 11 12 11 12 11 11 11 13 14 13 14 14 15
4 4 2 4 2 9 9 10 11 5 11 14 16 14 13 13 11 8 10 7 8 7 11 16 9 9 12 2 1 4 5 5 6 11 10 14 20 19 18 18 15 15 15 16 16 14 15 16 18 19 18 16 16 18 19 18 17 15 15 16 16 17 16 15 15 15 14 14 13 13 13 13 12 12 12 12 12 13 13 13 14 14 15 15 16 15
5 1 3 8 4 7 9 8 6 5 7 11 8 12 6 3 3 9 7 10 13 15 19 12 8 7 16 5 8 5 4 1 7 10 11 16 17 17 16 16 16 15 14 15 14 15 16 17 20 17 16 16 16 18 18 16 15 15 15 15 17 17 16 15 16 15 16 14 14 14 13 13 12 12 12 12 12 13 14 14 15 14 14 14 13 14
5 3 5 5 5 6 7 4 3 9 5 8 5 6 5 3 3 6 9 12 11 13 13 4 3 9 9 5 9 5 3 5 12 12 15 18 18 17 15 15 14 15 15 15 16 16 17 19 18 16 16 16 18 19 17 17 16 16 16 16 16 17 16 16 16 16 15 14 13 14 14 14 13 12 12 11 11 13 13 14 14 14 13 12 13 12
7 3 5 7 7 8 7 6 8 9 6 9 5 8 8 8 6 8 10 10 14 12 9 5 10 10 2 10 8 2 7 11 12 16 16 17 18 16 14 14 14 14 16 16 17 16 18 19 17 15 17 17 15 15 16 16 16 17 16 16 17 16 15 16 16 15 14 14 14 14 13 13 13 13 13 12 14 14 13 13 12 12 13 13 13 12
3 9 3 6 5 7 6 7 9 9 5 4 5 8 12 7 7 3 9 7 6 9 9 8 10 13 10 8 7 5 13 13 16 18 18 19 18 17 14 13 14 14 17 16 17 17 18 17 17 16 16 16 19 18 17 19 16 13 15 15 16 16 16 16 15 15 14 14 14 13 13 13 13 13 13 13 14 13 13 13 12 12 12 13 13 13
2 4 5 4 6 7 6 7 8 8 9 7 2 4 7 4 4 7 4 8 11 10 11 3 8 10 7 10 10 11 14 15 18 20 20 20 19 17 15 15 15 14 15 17 18 17 16 16 16 16 16 19 18 16 16 15 16 16 14 15 14 16 16 15 14 14 13 13 11 11 12 14 14 13 13 13 14 13 13 14 14 14 14 14 14 13
2 2 1 4 3 7 6 5 5 4 7 7 7 3 2 4 3 6 1 4 5 11 11 8 13 8 7 6 7 9 8 15 20 21 20 19 18 17 14 14 14 15 19 17 17 16 18 17 16 17 19 16 17 15 16 17 17 17 15 15 15 15 15 15 14 14 14 13 12 13 13 13 13 14 14 14 13 13 14 15 15 15 15 14 13 13
1 1 4 1 8 5 3 1 4 3 3 1 2 4 3 3 7 7 3 1 4 8 9 14 15 6 7 1 4 7 11 15 17 20 19 17 17 15 14 13 13 13 15 16 17 17 16 17 16 17 16 17 14 14 13 15 16 16 14 15 15 16 16 15 15 14 13 13 13 14 15 15 14 15 13 14 15 15 15 14 14 14 14 14 14 14
2 5 5 10 6 3 4 4 6 6 4 2 3 2 2 4 6 7 6 5 1 7 10 11 14 11 6 3 5 11 14 16 17 18 18 16 16 14 12 13 12 12 20 17 15 18 19 16 17 15 11 13 14 14 18 15 11 13 15 14 15 14 14 15 14 14 14 13 13 15 15 15 14 14 13 15 15 15 14 14 13 14 14 15 14 14
1 3 6 7 6 1 6 7 5 6 4 2 3 2 2 2 2 3 8 5 7 7 9 11 14 15 0 4 4 13 13 15 17 17 18 16 15 13 12 13 12 12 15 16 19 17 16 17 14 16 15 13 15 14 15 15 16 15 15 15 14 15 15 15 15 14 13 14 14 15 15 14 14 14 15 15 14 14 14 14 14 14 14 14 14 14
2 3 5 9 4 7 8 5 6 6 3 5 4 4 2 0 1 2 4 6 8 10 7 6 8 8 3 7 12 13 14 14 14 16 17 15 13 13 13 13 13 13 16 19 15 15 16 14 18 14 13 13 13 14 14 13 14 14 14 14 14 15 16 15 14 14 14 14 15 16 15 15 14 15 15 15 14 15 15 15 14 13 14 14 14 14
3 2 6 8 4 4 5 0 3 3 2 6 3 4 4 5 4 4 3 5 4 6 8 8 12 9 8 10 14 16 15 17 18 17 15 16 13 12 12 11 11 12 15 15 18 18 15 18 15 13 13 12 13 14 15 15 15 15 14 14 15 15 15 14 14 14 14 15 16 15 15 16 15 15 15 15 14 16 16 15 14 13 14 14 14 14
3 5 5 7 10 12 11 10 8 4 4 2 6 7 6 8 4 2 4 5 9 5 9 7 12 14 13 15 17 16 16 17 16 16 15 13 13 12 11 11 11 11 15 20 17 16 18 16 14 14 13 12 12 12 15 14 14 15 15 14 14 14 15 15 14 14 15 15 15 15 16 15 15 16 16 16 15 15 15 14 14 14 14 14 15 15
3 3 4 2 3 7 8 10 11 10 10 8 6 8 6 6 7 4 4 7 9 10 11 14 17 22 23 21 19 16 14 17 18 17 16 14 13 12 11 10 11 12 13 15 17 16 17 16 16 12 14 13 13 13 13 14 15 15 15 15 15 14 14 14 14 15 15 15 16 16 15 15 16 15 15 15 15 15 15 15 15 15 15 14 15 15
2 3 3 5 8 11 13 16 15 12 13 13 12 5 8 8 9 7 6 8 7 9 12 5 8 14 21 21 19 18 16 17 17 16 16 14 13 12 11 12 12 12 15 15 16 18 17 18 17 16 15 11 10 14 13 13 13 14 15 15 15 14 14 13 14 15 15 15 16 15 16 16 15 15 15 15 15 15 15 15 15 15 14 14 15 15
3 4 1 2 8 9 15 17 16 13 12 13 11 11 8 9 10 10 11 13 8 7 13 16 19 18 20 19 18 14 14 16 17 16 15 14 14 12 12 13 13 13 16 17 17 17 17 17 15 16 14 17 19 15 15 14 13 13 14 14 14 14 15 14 15 15 15 16 15 15 16 16 15 14 15 16 16 16 16 15 15 14 14 14 14 13
2 3 2 1 13 15 15 15 12 12 12 12 10 12 12 11 14 14 14 13 12 15 19 20 21 23 19 18 12 12 13 13 14 14 13 14 13 13 13 13 13 14 13 16 17 17 17 17 16 14 17 16 15 15 15 14 14 14 15 15 14 15 14 14 15 15 15 15 15 16 16 16 16 16 16 16 16 16 15 15 15 14 14 14 14 14
2 1 5 3 6 11 12 5 5 9 10 12 12 12 12 12 12 13 12 14 15 16 18 18 18 19 14 9 12 12 11 12 13 14 15 13 12 12 13 13 13 13 14 13 12 16 15 16 15 16 15 14 16 15 14 13 13 15 14 14 15 15 14 15 15 15 15 16 16 16 16 16 16 16 17 16 15 15 15 15 14 14 14 14 14 14
1 2 2 2 7 11 1 4 6 9 8 9 13 12 12 12 10 10 10 10 11 13 14 14 14 13 10 11 12 13 13 14 15 15 13 12 11 12 12 12 13 14 13 13 13 17 17 16 16 15 15 15 15 15 13 14 14 14 14 14 15 14 14 14 15 15 15 16 16 16 16 15 16 17 17 16 15 15 15 15 15 14 14 14 14 13
0 3 5 5 8 7 6 6 14 10 7 8 9 13 16 14 14 9 11 12 13 13 12 11 11 11 13 13 15 15 14 14 14 12 12 12 11 11 11 12 13 14 13 13 13 16 17 15 16 15 15 14 13 14 15 15 14 14 14 15 15 14 14 14 15 15 16 15 15 16 15 16 16 16 16 16 15 15 15 16 16 15 14 14 13 13
1 3 4 1 3 8 11 13 10 5 5 2 4 3 10 13 13 14 12 12 13 10 11 11 13 14 15 15 15 16 15 14 14 14 11 10 10 10 11 11 12 12 12 12 12 13 17 15 14 14 15 14 14 14 14 14 14 14 14 14 15 14 14 14 15 14 15 15 15 16 16 15 15 15 16 16 15 15 15 16 16 15 14 14 13 13
2 2 3 1 3 7 9 11 6 5 3 4 2 4 5 7 8 12 15 15 16 16 16 18 18 17 15 13 14 14 14 14 13 16 13 9 7 8 10 12 12 12 12 12 12 13 15 16 15 15 15 14 14 14 14 13 13 14 14 14 14 13 14 14 14 14 15 15 15 15 15 15 15 16 16 16 15 15 15 15 15 15 14 13 13 13
2 2 3 3 4 6 5 5 8 6 3 5 3 3 1 3 8 12 18 18 20 18 16 15 15 14 13 13 13 11 12 13 14 14 12 6 4 5 8 10 12 12 12 10 11 12 15 14 15 15 15 14 13 13 13 13 14 14 15 14 13 13 13 14 14 14 14 15 15 15 15 15 15 16 16 16 15 15 15 15 15 15 14 14 13 12
3 2 2 5 2 4 5 7 10 18 14 5 2 6 8 3 3 4 9 10 6 11 12 13 13 12 12 12 10 10 10 12 13 7 7 5 5 5 7 9 10 11 11 11 10 12 13 14 14 14 14 14 14 13 13 13 13 14 15 14 13 13 13 13 13 14 14 15 15 15 15 15 16 16 16 16 16 15 15 15 16 15 12 13 13 13
4 4 3 2 2 1 6 11 9 6 5 1 3 4 5 1 1 3 5 15 8 11 11 11 12 11 11 10 8 7 9 10 8 3 6 4 3 7 8 8 8 9 9 10 10 10 13 13 13 14 14 15 14 13 13 13 14 15 14 14 13 13 13 13 13 13 14 15 15 15 15 15 15 16 16 15 16 15 15 15 14 13 12 12 14 14
1 3 4 4 5 3 4 5 5 6 5 2 7 7 7 2 4 3 3 9 5 11 11 11 11 10 9 8 7 4 5 6 7 4 3 4 6 6 8 8 8 8 8 8 9 11 12 13 13 14 13 13 14 14 13 14 14 13 13 13 14 13 13 13 13 14 14 15 15 15 14 14 15 15 15 16 16 15 15 15 14 13 12 12 12 13
3 4 4 5 5 6 4 4 6 2 6 2 9 7 6 6 6 4 7 4 8 9 9 10 10 9 7 6 4 4 4 8 9 8 6 7 7 6 6 8 8 8 8 8 9 10 11 12 13 13 13 14 14 14 14 13 12 13 13 13 13 13 12 13 14 15 14 15 15 14 14 14 15 15 15 16 16 15 14 13 13 13 13 12 11 12
4 4 5 7 5 3 5 7 6 9 6 4 8 10 8 7 5 2 8 4 5 7 9 8 9 7 6 6 5 5 7 8 10 10 9 8 8 8 6 6 6 6 8 9 10 9 9 11 11 12 12 12 14 13 13 12 12 12 12 12 12 13 13 14 14 15 14 14 14 15 15 14 14 15 15 14 15 14 14 12 13 13 13 13 12 11
3 2 2 1 5 6 5 6 7 11 3 8 8 12 11 5 4 9 3 4 3 2 5 7 7 7 6 8 7 9 9 8 9 10 10 9 8 8 7 6 6 6 6 8 8 9 10 8 11 12 12 12 13 12 12 12 12 12 12 11 12 13 13 14 14 14 14 16 15 15 15 14 14 14 13 13 13 14 14 13 13 12 13 12 12 13
1 3 4 3 2 2 3 5 6 6 1 11 15 7 7 3 7 1 2 4 2 4 3 6 6 6 6 8 9 10 10 10 10 10 10 9 8 8 7 7 7 7 7 8 8 10 12 10 11 12 12 12 12 11 11 13 14 12 12 12 14 13 13 13 13 14 14 14 15 15 15 14 15 14 12 12 13 14 14 14 13 13 13 12 12 13
1 2 3 1 3 4 3 4 3 3 4 16 12 5 8 15 9 4 4 8 4 5 5 4 6 6 7 8 8 9 9 10 11 10 10 9 8 8 7 7 6 6 7 7 7 9 9 10 11 12 12 12 12 12 12 12 13 12 13 14 13 12 13 13 13 13 13 13 14 15 14 14 14 13 12 12 13 13 13 13 13 12 11 11 11 10
11 4 0 6 2 3 6 6 9 2 8 12 13 13 12 10 6 4 5 8 8 7 5 5 6 6 7 8 8 9 9 9 10 9 9 9 8 8 7 7 6 6 7 7 7 9 10 9 11 13 13 12 12 12 11 11 12 14 15 13 12 13 13 13 14 13 13 13 13 14 14 14 12 12 12 11 12 12 11 12 12 11 10 11 10 9
2 4 3 2 6 9 17 20 19 16 14 11 13 13 13 12 7 6 8 8 8 7 6 6 5 5 6 7 7 8 9 9 9 9 9 9 8 8 7 7 6 6 6 6 7 7 8 10 11 12 13 13 12 12 11 10 11 14 14 13 12 13 13 14 15 14 14 13 12 13 14 14 13 12 11 12 10 10 10 10 10 10 10 10 10 10
4 5 4 5 5 3 10 4 13 17 15 13 13 10 9 9 9 7 9 10 8 6 7 6 6 6 7 7 9 10 10 9 9 9 8 8 8 8 8 7 7 6 6 7 7 7 7 9 10 11 12 13 13 11 10 11 10 11 12 13 13 13 13 14 15 15 14 13 12 12 11 12 11 12 11 10 9 8 8 9 9 10 10 9 10 10
2 6 6 12 11 9 14 9 9 10 11 11 10 9 10 11 11 10 10 8 7 6 7 7 6 7 7 8 10 10 10 9 9 9 8 7 8 6 7 6 7 6 6 6 7 6 7 8 10 11 12 12 12 11 11 11 11 11 12 12 12 12 13 14 14 14 15 15 13 10 10 10 13 13 10 11 9 9 8 8 9 9 9 9 10 10
4 6 5 4 7 14 17 22 23 20 19 19 17 13 11 8 9 11 10 9 8 8 8 7 8 8 9 10 8 9 10 10 10 9 8 7 6 6 6 6 5 7 7 7 6 6 7 8 10 11 12 12 11 11 11 11 11 11 12 11 11 12 13 13 14 14 15 14 11 10 10 9 10 10 10 11 10 8 8 9 9 9 9 8 8 9
4 9 9 3 8 9 10 10 1 5 10 8 8 13 12 11 9 9 8 9 10 10 10 10 10 9 9 9 9 9 11 9 9 8 9 8 7 7 7 6 6 7 7 7 6 6 7 9 10 11 11 11 11 10 10 11 10 10 10 11 11 12 13 14 13 13 13 11 11 10 10 9 9 9 9 9 10 11 10 9 13 11 9 9 13 18
11 11 8 7 5 9 10 6 6 8 12 13 10 3 8 7 8 10 12 13 12 12 11 10 10 10 11 11 10 10 11 10 10 8 8 7 7 6 6 7 7 7 7 6 7 8 8 8 9 10 11 11 10 10 10 11 10 11 10 10 11 11 12 13 12 11 11 11 10 11 11 10 9 9 9 8 9 9 11 12 8 10 15 15 16 17
Wind_Direction
329 54 40 33 8 16 36 17 359 334 306 293 308 343 332 321 317 325 319 335 340 328 324 339 29 81 63 60 71 82 93 104 109 101 61 57 7 340 338 338 337 340 342 329 323 309 317 313 315 317 315 314 312 311 314 318 319 316 315 314 310 310 309 310 308 302 298 298 298 291 285 297 303 299 290 281 277 270 284 294 296 306 308 323 327 328
26 63 51 31 354 337 355 354 342 320 316 325 349 346 329 332 325 319 314 336 339 336 320 336 38 71 81 75 61 75 87 76 89 78 63 352 334 330 334 335 338 335 330 328 325 323 315 318 320 319 316 318 321 327 326 322 321 318 317 316 315 313 312 306 302 300 296 291 296 299 297 293 289 293 291 289 283 284 282 277 277 289 300 311 322 325
45 55 53 25 344 317 312 344 355 335 315 359 5 348 325 334 323 279 305 336 328 323 311 328 16 88 87 78 76 77 84 70 48 83 26 337 335 345 337 333 329 330 328 329 325 324 322 319 320 323 338 342 341 332 327 323 318 322 320 318 318 317 314 311 306 301 298 294 288 290 292 294 295 294 291 288 289 278 272 270 270 280 288 298 314 319
53 42 32 343 336 342 52 17 1 347 343 12 4 355 343 325 337 329 335 331 326 315 313 325 355 116 110 102 94 97 87 113 121 90 288 344 340 347 343 335 332 328 324 324 326 327 324 325 341 355 345 336 330 330 325 328 336 337 336 337 332 327 323 316 313 309 302 294 288 284 285 283 281 285 291 290 277 263 249 253 262 276 284 289 306 308
76 31 357 327 322 8 360 16 8 358 345 87 17 349 327 329 322 308 312 320 315 90 11 327 148 156 133 120 101 103 122 112 269 330 342 358 354 351 337 329 331 327 327 326 328 330 331 349 351 342 336 332 336 336 337 342 340 340 339 337 335 331 326 321 317 313 311 306 294 286 283 280 278 272 270 272 275 279 284 288 286 289 285 302 300 301
78 44 320 337 16 17 8 13 20 344 329 100 68 347 313 313 313 311 313 326 314 316 85 331 333 342 141 131 125 130 138 52 49 12 358 346 348 337 332 328 327 326 328 330 330 328 337 340 334 332 331 337 334 334 344 345 344 340 335 333 331 327 328 330 330 329 325 315 305 296 289 284 278 279 279 282 285 289 289 285 286 291 297 298 301 302
51 106 25 4 4 11 12 19 25 342 322 340 341 326 316 313 311 316 317 326 327 340 1 250 2 329 141 133 124 112 55 11 17 350 345 343 348 342 335 331 329 329 331 332 327 331 334 333 332 329 334 333 333 343 342 337 333 329 327 325 320 314 310 312 314 321 323 319 314 308 299 291 283 280 279 279 282 285 285 283 283 285 290 294 298 306
352 38 25 20 8 12 4 4 10 349 320 345 328 316 314 313 312 312 305 303 303 328 261 29 19 321 315 107 121 169 174 326 324 351 342 336 342 339 336 332 330 330 334 330 329 332 331 332 327 332 335 334 337 339 337 335 332 333 333 328 319 312 313 315 315 313 314 314 312 310 306 301 289 282 286 287 289 293 292 289 289 290 293 293 293 292
30 10 29 16 3 14 4 334 345 340 338 325 320 314 304 307 297 294 292 308 322 293 334 357 3 324 314 100 152 80 309 308 13 348 336 338 337 337 335 335 333 332 331 329 326 325 338 332 336 338 339 343 337 332 333 336 345 340 331 323 321 326 328 327 322 314 307 308 314 318 329 344 343 327 317 316 309 303 301 296 293 294 294 292 293 293
45 36 31 352 15 5 331 329 334 344 336 327 313 305 295 284 280 260 256 310 306 289 341 357 0 326 311 70 248 178 357 352 335 338 340 336 334 334 332 332 332 329 330 327 322 322 335 333 337 337 339 337 333 329 332 330 330 334 329 324 332 336 334 330 333 333 330 336 331 328 335 339 339 339 335 331 324 317 313 304 298 297 294 293 291 293
102 120 27 300 31 354 313 312 287 244 294 302 325 327 326 309 304 294 209 328 297 359 343 355 342 341 311 110 163 1 24 2 334 322 325 329 332 331 334 333 330 329 329 325 323 337 333 335 336 336 330 331 330 329 327 329 333 331 329 325 332 331 324 325 340 346 344 343 341 342 342 340 335 337 331 325 321 317 312 305 302 299 296 294 294 291
144 143 210 112 64 336 306 290 212 237 277 343 344 338 310 186 303 215 10 208 346 331 2 345 344 315 296 318 9 68 95 345 343 325 325 332 334 331 332 331 328 329 330 329 333 330 331 338 339 334 331 331 328 330 332 332 331 328 327 325 327 326 325 326 333 333 330 330 330 332 332 330 328 325 321 316 309 306 301 298 296 295 296 293 292 292
164 156 36 133 200 301 347 342 26 214 329 359 348 359 11 349 4 343 356 353 352 323 335 343 336 308 310 332 49 108 14 335 345 333 329 331 331 331 332 329 327 332 332 335 332 334 338 336 335 332 328 333 337 334 333 332 330 330 329 329 328 327 330 328 325 321 321 324 323 325 325 326 325 320 317 312 306 304 301 300 298 297 295 293 292 287
115 64 67 161 195 18 13 14 4 15 2 8 12 1 11 2 1 333 335 313 294 291 331 326 314 295 314 113 79 58 25 352 331 336 335 339 334 329 330 327 329 331 334 332 336 332 330 331 334 338 336 339 337 336 332 333 334 333 331 332 327 328 331 331 330 329 330 330 327 328 329 327 322 316 313 309 304 302 299 298 294 294 291 293 288 291
337 167 88 346 4 9 46 55 12 340 333 24 9 12 357 23 358 312 337 333 315 311 319 306 2 323 326 4 120 99 55 325 344 341 341 338 335 334 329 327 330 334 331 334 336 335 331 331 334 336 338 338 337 334 332 332 332 332 332 329 327 326 329 331 332 330 326 323 322 319 318 315 311 308 305 304 302 299 297 296 295 294 294 289 292 289
321 259 68 47 88 46 67 48 19 319 230 29 346 14 5 22 304 258 288 291 301 305 309 346 327 332 324 89 124 121 12 9 353 342 345 339 339 335 330 331 334 334 331 339 335 333 337 339 338 334 337 339 331 339 338 334 332 332 331 329 327 325 325 327 328 327 325 323 321 318 312 312 313 315 315 309 307 303 303 301 298 295 291 291 290 291
311 65 153 103 55 58 78 73 48 10 28 334 354 12 349 313 258 275 278 262 281 288 283 342 310 326 107 157 163 201 350 353 338 347 345 338 339 336 332 333 336 334 334 335 335 338 336 335 335 335 336 330 331 339 335 333 333 330 330 329 330 327 325 327 327 327 327 325 322 321 321 322 322 317 312 309 307 306 303 299 296 294 293 292 290 289
321 298 138 166 83 90 95 95 75 59 34 345 15 2 298 194 218 300 315 302 300 298 296 320 313 319 335 342 162 330 342 338 340 349 343 340 339 336 336 334 337 333 336 336 337 337 334 336 335 334 332 337 338 338 331 328 330 336 329 328 326 325 328 328 328 326 326 323 320 320 320 319 317 313 311 309 306 304 301 299 297 293 292 293 293 293
320 300 132 111 114 143 152 115 97 49 41 61 42 301 347 7 332 327 298 332 330 325 312 276 319 307 324 312 342 337 337 337 340 341 340 339 338 337 335 336 336 339 336 342 339 336 334 340 337 336 335 333 336 337 325 325 329 335 329 325 323 326 326 328 326 325 322 321 321 319 319 318 316 315 312 309 306 303 300 299 296 295 293 292 291 290
257 295 257 168 326 153 190 232 340 88 113 129 176 55 350 285 345 328 164 291 308 299 329 296 333 306 356 338 344 329 320 333 337 341 337 336 336 335 335 336 339 332 342 346 339 339 337 342 337 338 332 342 330 329 327 332 335 335 345 332 326 325 326 324 324 324 321 324 320 319 317 317 315 313 311 309 308 305 303 300 298 295 292 291 291 290
291 182 287 37 174 147 224 294 344 358 347 55 321 5 31 350 185 187 205 98 327 323 302 307 309 301 358 113 322 303 337 342 341 334 332 333 333 333 334 336 335 339 328 343 338 335 344 335 338 334 333 341 330 326 330 332 331 331 327 326 327 325 325 323 328 328 325 323 321 321 321 320 318 314 311 310 308 306 302 300 299 297 295 293 289 289
268 227 283 304 314 290 76 55 87 99 95 73 334 49 350 26 9 343 330 120 47 300 306 312 297 287 322 146 301 341 344 336 338 334 330 332 331 331 332 334 336 333 336 352 333 335 344 337 332 318 341 332 325 324 332 334 329 334 325 327 326 324 322 325 323 323 325 323 322 320 318 317 317 315 314 312 309 305 305 304 302 301 299 295 293 290
314 310 279 291 302 349 74 80 80 99 98 36 272 177 173 133 349 351 322 307 310 289 278 257 272 286 101 189 304 348 343 340 334 334 331 331 331 330 331 332 333 333 336 338 335 343 336 334 323 329 348 333 326 324 329 332 332 331 327 326 325 323 322 324 321 321 321 318 318 319 318 316 316 316 314 311 309 306 306 305 302 302 299 296 294 289
8 245 282 281 108 95 105 70 100 112 135 161 162 142 151 286 175 299 280 316 295 307 307 306 264 273 128 212 342 341 342 338 334 334 333 330 330 328 328 331 335 334 329 338 344 336 333 326 324 346 333 331 330 327 326 327 326 326 326 325 322 322 324 321 321 321 319 318 317 318 316 317 317 315 313 311 309 307 306 304 304 302 299 297 294 291
266 118 309 307 300 187 188 207 245 304 319 236 210 141 130 137 162 209 227 187 276 276 309 303 281 275 301 330 331 336 334 336 334 333 335 331 327 326 327 329 332 334 325 332 339 340 331 326 338 330 332 329 328 321 334 335 329 326 325 324 324 324 323 320 321 320 320 317 317 314 316 318 316 314 313 310 308 306 306 305 304 301 298 297 295 292
247 307 336 356 350 343 343 335 347 322 270 319 133 149 157 152 162 236 279 298 291 315 332 280 271 268 297 311 325 330 334 330 333 330 331 331 325 323 324 326 329 328 326 339 341 333 330 334 332 329 329 326 325 324 326 329 323 323 323 323 324 321 319 320 322 319 318 316 315 315 316 316 316 315 312 310 308 306 305 304 302 300 297 296 295 293
281 306 279 289 293 292 293 294 298 316 302 281 269 166 171 160 178 197 253 258 296 310 292 258 254 286 303 311 324 329 334 331 328 330 330 327 325 322 323 325 327 325 326 331 334 333 333 327 323 330 325 330 326 323 323 325 327 327 325 323 324 323 320 320 319 317 317 315 315 316 316 316 317 314 312 309 308 306 304 302 301 299 298 296 293 292
261 279 221 253 259 271 283 283 287 293 281 278 283 262 169 170 165 182 226 261 298 307 282 236 285 299 295 307 320 327 330 329 326 324 326 325 324 323 321 322 321 323 325 337 336 331 326 327 328 334 322 312 321 323 323 323 320 322 325 325 324 323 321 321 320 318 314 315 315 316 316 317 316 313 310 308 307 305 304 302 301 299 297 294 291 289
333 291 73 37 253 265 271 270 273 270 264 270 268 262 236 186 173 193 225 241 260 237 265 284 296 292 292 303 318 323 328 323 319 319 319 322 319 319 320 317 318 318 328 337 337 329 323 325 327 324 321 326 339 332 321 320 320 322 322 321 323 322 322 319 317 318 314 315 316 315 317 315 313 311 308 307 306 305 304 302 301 298 296 292 288 285
294 260 54 306 293 289 277 268 264 261 267 271 266 261 260 232 214 216 235 241 242 250 260 278 284 281 289 304 310 320 322 315 314 313 316 320 320 319 319 316 314 316 319 329 334 327 323 328 324 322 319 331 330 322 320 318 322 324 323 321 322 322 319 318 318 314 313 314 314 315 314 313 312 310 310 308 307 305 304 303 301 298 294 291 288 284
292 323 59 311 288 289 287 269 257 261 267 270 269 262 250 245 242 234 246 254 260 266 270 278 286 285 283 295 316 315 312 313 312 316 316 317 317 317 314 313 314 315 319 322 328 325 325 324 323 320 326 321 320 321 317 316 319 322 318 320 322 319 319 320 316 314 315 315 315 315 312 313 312 311 310 309 306 305 303 301 299 296 293 290 287 283
251 282 151 247 309 312 322 216 288 284 267 276 278 267 245 226 233 238 234 241 253 267 277 282 281 281 304 322 309 308 313 318 318 316 316 313 313 313 311 314 315 316 318 320 321 328 327 322 323 321 321 321 318 315 317 319 319 317 319 320 319 318 319 316 315 316 314 314 313 312 313 313 313 311 309 309 307 306 304 302 300 296 292 289 287 285
231 313 316 339 314 268 345 311 320 327 301 260 239 228 225 218 222 234 245 253 253 266 276 269 265 290 305 311 309 308 314 313 315 315 316 312 305 305 309 311 315 316 315 316 319 325 326 321 323 322 320 319 315 315 318 319 317 318 320 318 318 319 318 316 320 317 313 314 313 314 313 313 312 310 308 309 309 308 305 302 300 297 296 292 288 286
354 281 298 11 281 288 307 316 310 307 281 358 61 163 189 218 221 238 252 263 269 256 247 249 274 289 296 304 304 306 311 311 310 307 307 302 301 303 307 309 312 313 311 311 315 315 322 328 321 318 318 315 315 315 315 314 314 313 314 315 318 316 313 315 316 315 313 312 313 314 314 312 311 309 307 308 308 308 304 301 299 298 296 293 292 288
209 247 280 73 272 294 315 304 290 241 305 90 108 131 192 224 229 243 267 269 266 264 260 261 265 276 287 292 296 299 299 298 301 299 299 289 289 290 296 305 311 312 309 311 310 316 320 321 320 317 316 316 319 317 317 316 315 315 315 317 316 314 315 314 313 313 313 313 313 313 314 313 311 308 307 306 306 307 304 300 299 299 300 299 297 295
256 259 314 247 242 271 277 348 330 312 62 153 160 140 149 272 243 268 269 251 244 243 246 253 262 274 284 291 291 290 292 296 294 279 269 263 258 272 292 301 309 312 312 313 312 313 318 323 317 315 314 316 316 316 315 312 315 315 315 317 311 312 313 313 314 312 313 313 314 314 313 312 310 309 307 305 305 305 303 302 302 303 303 301 298 294
218 287 234 300 214 288 312 280 253 281 285 176 174 201 185 199 223 273 302 290 256 229 226 241 259 274 283 288 291 288 298 298 285 279 163 192 227 271 298 303 307 309 311 313 312 308 315 318 313 313 314 315 316 314 313 315 316 313 313 312 311 310 311 314 312 314 315 314 314 314 313 312 309 308 307 305 305 305 304 304 304 302 302 301 300 298
224 234 7 327 270 150 309 315 314 300 305 87 151 126 168 106 228 265 269 286 243 212 207 232 253 269 280 285 291 299 304 295 304 351 159 203 263 308 309 305 307 308 310 312 316 310 308 318 320 317 317 318 311 312 313 315 315 312 308 307 308 310 312 312 311 314 314 313 313 313 312 310 308 306 307 306 304 304 303 301 300 298 299 298 300 300
251 286 261 238 277 291 289 294 299 299 283 92 168 162 148 146 177 199 191 263 165 181 206 221 244 259 272 287 290 309 305 298 300 322 61 324 320 313 303 306 308 305 311 313 305 301 313 321 319 319 319 309 309 314 313 314 313 307 305 307 309 310 310 312 313 314 315 313 312 311 310 309 308 307 305 304 302 302 301 300 300 298 297 296 296 295
209 206 208 233 233 238 255 275 282 266 292 113 151 159 141 146 135 190 303 336 162 199 202 212 239 259 275 273 263 252 249 289 296 311 337 319 306 298 296 298 301 305 307 306 300 313 315 311 320 321 313 315 315 316 316 312 307 304 304 306 309 309 309 312 314 313 312 311 310 310 310 309 308 306 304 302 301 300 298 298 299 300 299 297 295 296
183 208 200 237 267 260 206 271 271 266 256 119 151 136 134 152 148 271 287 345 160 195 199 206 239 258 257 257 226 261 239 252 282 302 308 297 294 294 297 289 290 297 299 301 297 305 306 316 320 308 306 310 314 314 311 306 305 304 303 304 304 306 309 312 313 313 311 310 310 310 310 309 306 304 302 300 299 300 300 300 300 301 300 297 296 293
186 209 225 263 251 246 246 239 260 268 261 139 129 140 148 164 284 286 9 144 195 229 203 209 240 249 237 237 243 247 264 274 281 284 283 286 283 283 287 287 286 289 292 292 305 301 296 322 309 311 308 312 313 310 307 306 303 303 303 302 300 304 310 310 311 311 311 311 310 309 307 306 304 303 301 300 300 302 303 304 303 300 299 299 298 300
195 194 257 256 232 226 216 264 285 300 130 150 133 136 190 224 257 25 289 275 200 244 222 238 233 247 219 247 244 253 266 272 274 278 276 273 274 277 282 284 287 290 294 297 298 303 324 320 310 308 307 312 315 311 309 307 302 300 300 298 302 308 309 309 307 309 310 309 308 307 305 304 304 304 302 300 302 303 304 306 306 306 304 304 309 308
112 238 270 238 152 288 258 236 274 320 122 161 161 257 199 210 260 300 281 284 257 201 231 241 237 224 223 239 254 259 261 269 272 271 272 268 267 273 277 278 280 287 288 287 295 297 295 306 310 307 307 311 310 312 310 305 300 298 299 299 307 309 309 308 309 309 307 306 305 305 305 304 303 302 301 301 304 306 305 306 307 309 309 312 311 312
180 211 348 280 175 181 261 266 283 44 145 184 207 235 256 251 242 222 250 262 268 260 207 224 242 230 215 232 248 254 264 256 262 263 262 265 265 266 272 277 275 279 286 288 285 293 309 314 302 302 304 306 307 309 308 303 298 299 299 302 309 309 309 309 309 308 304 303 303 303 302 302 302 303 302 303 307 307 309 309 313 314 317 313 310 318
182 190 66 306 252 256 268 261 268 280 271 239 212 233 252 256 234 227 233 245 236 238 203 222 236 223 216 216 239 250 243 253 258 261 262 264 264 265 264 272 276 273 278 281 286 296 300 302 296 296 295 301 305 306 303 300 299 298 300 306 309 310 310 310 309 307 304 303 304 303 303 304 307 306 306 306 304 305 307 309 313 317 317 318 323 327
200 131 189 240 259 356 284 228 227 244 254 257 258 236 230 241 233 209 225 228 242 220 212 209 217 220 219 217 228 243 251 249 256 258 258 261 259 258 258 260 263 268 276 280 284 297 300 301 296 294 297 297 306 304 300 298 296 296 301 306 310 312 311 310 309 308 307 307 306 306 305 310 312 314 310 308 310 310 312 314 315 315 316 317 320 321
205 161 233 238 243 228 251 279 284 276 267 266 257 245 228 224 222 214 219 226 227 219 206 206 191 213 206 226 227 237 248 247 249 253 253 253 256 255 255 254 257 267 274 278 280 287 296 295 290 292 296 296 301 303 300 297 296 299 302 305 308 310 311 311 312 311 308 307 306 308 311 311 313 314 313 315 315 315 316 315 312 310 311 313 313 314
104 119 247 192 232 253 264 267 266 272 271 263 254 238 236 233 215 212 209 213 207 205 202 199 198 210 209 225 223 231 244 246 240 244 248 250 250 250 248 252 254 259 270 274 277 278 277 285 288 288 291 292 296 298 298 296 299 302 304 307 309 312 312 312 312 310 306 305 308 310 314 314 313 315 315 315 315 311 311 311 311 309 305 304 302 318
155 237 226 226 261 263 247 269 157 299 303 288 245 224 228 224 215 208 194 204 205 208 204 205 208 212 221 224 225 225 235 244 238 232 241 240 241 245 250 250 252 259 266 269 267 265 271 275 280 284 288 290 294 294 294 296 299 301 304 308 310 313 313 314 313 312 310 309 309 310 315 315 313 314 316 317 319 320 315 309 315 315 318 320 325 330
201 221 171 207 214 264 267 254 200 247 270 269 290 234 204 193 192 200 203 207 209 210 203 202 212 210 216 222 216 221 229 233 237 229 232 230 233 232 238 244 249 255 261 261 266 267 264 271 273 277 283 287 291 292 295 296 297 301 305 309 311 313 313 314 315 312 309 311 310 311 312 312 313 314 316 317 321 323 323 322 323 326 328 328 331 337